Location: Unspecified
(43.1763°N, 79.4719°W)
Time: 19:05:10
(UTC-04:00)

Resurs 1-4 Rocket - Visible Passes

Search period start: 20 August 2017 00:00
Search period end: 30 August 2017 00:00
Orbit: 799 x 815 km, 98.5° (Epoch: 20 August)

Date Brightness Start Highest point End Pass type
(mag) Time Alt. Az. Time Alt. Az. Time Alt. Az.
20 Aug 4.5 02:11:02 10° ENE 02:13:17 13° E 02:13:24 13° E visible
20 Aug 1.9 03:48:29 10° NNE 03:53:45 82° WNW 03:54:28 67° SW visible
20 Aug 4.1 05:30:47 10° NW 05:32:45 12° WNW 05:34:43 10° W visible
21 Aug 2.3 03:23:57 10° NNE 03:29:11 61° E 03:29:32 60° ESE visible
21 Aug 3.7 05:04:53 10° NNW 05:08:32 19° WNW 05:10:37 15° W visible
22 Aug 3.1 02:59:39 10° NNE 03:04:31 37° E 03:04:34 37° E visible
22 Aug 3.1 04:39:42 10° N 04:44:13 30° WNW 04:45:39 26° W visible
23 Aug 3.9 02:35:40 10° NE 02:39:37 22° E 02:39:37 22° E visible
23 Aug 2.4 04:14:46 10° N 04:19:49 48° WNW 04:20:42 44° W visible
24 Aug 4.5 02:12:25 10° ENE 02:14:40 13° E 02:14:40 13° E visible
24 Aug 1.9 03:50:03 10° N 03:55:20 79° WNW 03:55:44 73° WSW visible
24 Aug 4.1 05:32:31 10° NW 05:34:17 12° NW 05:36:04 10° WNW visible
25 Aug 2.3 03:25:31 10° NNE 03:30:45 64° ESE 03:30:47 64° ESE visible
25 Aug 3.7 05:06:32 10° NNW 05:10:04 19° WNW 05:11:52 16° W visible
26 Aug 3.1 03:01:12 10° NNE 03:05:49 38° E 03:05:49 38° E visible
26 Aug 3.1 04:41:18 10° N 04:45:47 29° WNW 04:46:53 27° W visible
27 Aug 3.9 02:37:10 10° NE 02:40:52 23° E 02:40:52 23° E visible
27 Aug 2.4 04:16:22 10° N 04:21:23 46° WNW 04:21:57 45° W visible
28 Aug 4.5 02:13:50 10° ENE 02:15:55 14° E 02:15:55 14° E visible
28 Aug 1.9 03:51:38 10° N 03:56:54 76° WNW 03:56:59 76° W visible
28 Aug 4.1 05:34:18 10° NW 05:35:50 11° NW 05:37:22 10° WNW visible
29 Aug 2.3 03:27:05 10° NNE 03:32:01 65° E 03:32:01 65° E visible
29 Aug 3.7 05:08:10 10° NNW 05:11:38 18° WNW 05:13:06 16° W visible
